Wind_Speed
9 9 9 9 10 10 10 11 11 12 13 13 12 11 9 7 6 5 4 4 4 3 2 3 4 4 4 4 4 4 3 2 2 1 1 1 1 2 2 4 4 5 6 7 8 9 9 7 8 10 11 12 14 14 14 16 17 17 17 17 16 16 14 17 23 24 19 14 11 9 10 13 17 19 21 20 18 17 14 14 16 13 15 16 5 7 23
8 8 8 8 9 9 9 9 10 11 11 12 12 12 11 10 9 7 6 5 4 4 3 3 4 4 5 4 4 3 2 2 2 2 2 2 3 4 4 5 6 7 8 8 9 10 9 8 10 11 12 14 15 15 16 17 17 18 19 17 16 14 14 17 21 20 16 12 8 8 13 17 22 24 22 20 18 17 16 17 18 14 17 16 8 10 28
7 6 6 6 7 7 8 8 9 9 10 10 11 11 11 11 11 10 9 9 8 6 4 3 4 4 4 4 4 3 3 3 3 4 4 4 5 6 6 7 8 8 9 10 10 11 10 10 12 13 14 15 15 15 17 18 18 19 19 17 16 16 18 19 15 10 8 10 11 16 21 23 26 27 24 22 20 18 18 16 15 14 16 16 15 19 35
6 6 6 6 6 6 6 7 7 8 9 9 9 10 10 10 11 11 10 11 12 10 8 6 5 3 3 3 3 3 3 4 4 5 6 6 6 7 8 8 9 9 10 11 11 12 12 12 13 14 15 16 16 17 18 19 20 20 18 17 18 20 22 22 19 16 17 19 20 23 26 27 27 28 27 24 21 21 21 18 19 19 17 21 25 29 37
6 6 6 6 6 6 6 6 6 6 7 8 8 8 8 9 10 11 10 9 11 12 11 9 7 5 4 3 3 3 4 4 5 6 6 7 8 8 9 10 10 11 12 12 13 13 14 15 16 16 15 17 18 19 20 21 21 20 19 20 21 23 25 23 23 22 22 24 24 23 26 27 27 28 29 27 24 24 24 23 25 23 17 22 30 31 34
6 5 5 5 6 6 6 6 6 6 6 6 7 7 8 8 9 9 9 9 9 11 10 9 9 8 6 4 4 4 5 6 7 7 7 8 9 10 10 11 11 12 13 14 14 16 16 17 17 16 17 19 19 20 21 21 21 20 21 23 24 25 26 26 25 23 22 24 25 23 23 25 27 30 31 29 26 25 25 24 27 27 23 25 30 32 37
5 5 5 5 5 5 5 6 6 6 6 7 7 7 8 8 8 8 8 8 8 9 9 9 9 8 8 6 6 7 7 7 8 9 9 10 11 11 12 13 14 14 14 15 17 17 18 19 19 20 20 20 21 22 22 22 22 23 24 25 25 25 26 27 27 27 25 22 21 21 21 24 30 31 28 25 23 22 22 21 24 28 29 29 30 34 39
5 5 5 5 5 5 5 6 6 6 6 6 6 6 6 7 7 7 7 7 7 7 9 9 9 9 10 9 9 10 10 10 10 11 11 12 12 14 14 15 16 16 16 17 18 19 20 21 22 22 22 22 23 24 24 24 25 25 26 26 24 24 26 26 27 31 31 23 20 20 20 26 33 29 20 17 19 20 20 18 21 26 28 28 30 36 39
6 7 7 6 6 6 6 7 7 7 7 6 6 6 6 6 6 7 7 7 7 8 9 9 9 10 11 11 12 13 13 14 14 14 14 14 15 16 16 17 17 18 18 19 20 21 22 22 23 23 24 24 24 24 25 26 26 26 26 26 25 24 24 25 25 30 34 28 23 22 24 30 31 22 14 15 19 21 19 16 19 24 27 29 31 36 38
8 8 8 9 9 9 8 8 8 8 8 8 7 7 7 7 7 7 7 8 9 10 11 10 10 11 12 12 13 14 15 16 16 17 17 17 17 18 19 19 20 21 21 21 22 23 23 24 24 25 26 26 26 26 27 26 26 27 26 26 25 22 21 23 21 25 33 30 25 29 31 26 18 15 18 20 19 20 19 17 18 23 27 30 32 35 36
8 8 9 10 10 10 10 10 10 9 8 8 8 8 8 9 9 8 9 9 10 11 12 13 13 14 14 15 15 15 16 16 17 17 18 18 19 20 21 22 23 23 23 23 24 24 25 26 26 27 28 28 28 27 27 27 26 26 25 24 23 20 20 22 20 21 29 31 30 32 24 10 10 20 23 18 15 17 18 19 20 23 28 31 33 35 32
9 10 10 11 11 12 12 12 12 11 11 10 9 9 9 9 9 9 10 11 11 12 13 14 15 16 17 18 18 18 18 18 18 19 19 19 20 21 22 23 24 24 24 24 25 25 26 27 28 29 28 28 28 27 27 27 24 22 21 21 21 21 20 20 19 21 27 33 29 18 9 11 20 24 18 12 12 15 20 23 24 25 29 32 32 31 30
10 11 12 12 13 13 13 14 14 13 13 13 12 11 10 10 10 10 11 11 12 13 14 15 16 16 18 19 19 20 21 21 21 21 21 22 21 22 23 23 24 24 24 25 25 26 27 28 28 29 28 28 28 27 25 23 21 20 20 20 21 21 19 19 20 20 23 24 16 8 16 30 30 18 12 14 13 16 23 28 29 27 28 29 29 30 33
12 13 13 13 14 14 14 15 15 15 15 15 14 14 13 14 13 13 13 13 13 14 15 16 17 17 18 19 20 21 21 22 23 22 22 23 23 23 23 23 24 25 25 25 26 26 27 28 29 30 29 26 24 23 22 21 21 21 20 20 21 20 19 19 18 17 17 19 22 25 31 33 25 16 16 18 17 20 26 31 33 29 22 24 30 34 39
12 13 14 14 15 15 15 15 15 16 16 16 16 16 15 16 16 16 16 16 15 15 16 17 18 18 19 20 21 21 22 22 23 23 23 23 23 23 23 24 25 25 25 25 26 27 27 27 27 28 26 23 21 21 23 22 22 22 20 20 21 19 20 20 17 18 20 21 23 23 19 17 21 23 21 20 21 24 27 33 35 28 21 29 37 39 41
11 12 13 14 15 16 16 17 17 17 17 17 17 17 17 17 17 18 18 18 18 18 18 18 19 19 20 21 21 22 22 22 23 23 23 23 23 23 24 24 25 25 25 25 26 26 26 25 24 24 24 23 21 22 24 23 22 23 21 19 19 18 21 22 20 23 26 22 18 12 10 17 28 26 19 19 23 28 31 32 33 31 31 37 41 39 41
12 12 13 14 15 16 16 17 18 18 18 18 18 18 18 18 18 18 19 19 19 20 20 21 21 21 22 22 23 23 23 23 23 24 24 24 24 24 24 24 25 25 25 25 25 24 24 24 23 24 24 23 22 22 24 23 23 24 22 19 19 21 23 24 24 27 28 25 22 19 21 27 28 18 13 20 27 31 28 22 27 38 40 39 40 41 42
12 13 14 15 16 16 17 17 17 17 18 18 19 19 18 18 18 19 19 19 19 19 20 21 22 22 22 23 23 23 24 24 24 25 25 25 24 24 24 25 26 25 24 24 24 24 24 24 23 23 24 24 22 21 23 23 24 25 25 22 23 24 24 24 26 28 28 26 25 27 31 32 24 15 18 26 29 30 25 22 33 43 41 38 40 42 42
13 14 15 16 17 18 18 18 18 18 17 18 18 18 18 18 18 19 19 19 19 18 19 20 20 21 22 23 23 23 24 25 25 26 26 26 25 25 26 26 24 23 22 23 23 23 24 24 23 22 24 26 23 22 24 27 28 29 29 26 25 24 23 24 26 26 24 25 25 25 28 30 25 25 31 32 30 29 30 35 40 40 39 41 42 42 43
13 14 16 17 19 19 20 20 20 20 19 19 18 18 18 18 18 18 19 20 20 19 18 18 19 19 21 22 23 24 25 25 26 26 27 27 27 28 27 24 21 21 22 23 23 22 22 25 24 23 25 27 25 24 29 32 32 32 31 29 27 24 22 24 27 24 20 21 20 16 20 30 34 37 39 35 33 35 37 40 40 39 40 42 42 42 42
14 15 17 18 19 20 20 21 21 21 20 20 20 19 19 19 19 19 19 20 21 21 19 18 19 19 20 21 22 24 25 25 26 27 28 29 30 28 26 23 21 23 23 23 24 23 22 24 25 24 26 27 27 28 32 35 36 34 32 29 27 26 24 24 28 26 21 22 24 23 29 36 37 38 38 36 36 37 38 40 41 42 42 41 43 45 43
15 16 18 19 19 20 20 20 20 21 21 21 21 21 21 21 21 21 21 21 22 22 21 20 20 19 19 20 21 22 23 23 25 27 28 29 29 26 24 24 24 25 25 25 26 25 24 24 26 27 28 30 31 31 33 35 37 37 36 32 30 31 31 31 34 34 31 34 39 40 39 39 38 40 39 36 35 37 38 40 41 42 42 42 43 45 44
16 17 19 20 20 20 20 19 19 20 20 20 21 21 21 21 21 22 22 23 22 22 22 21 21 21 20 20 21 21 22 24 25 26 26 28 28 28 28 29 29 28 27 26 25 25 26 28 30 31 32 33 33 34 34 36 38 38 39 39 39 39 38 36 39 41 40 41 44 44 42 41 42 43 39 36 37 39 39 40 41 42 43 43 42 44 45
17 18 19 20 21 20 20 19 18 18 19 19 20 20 21 21 22 22 23 23 23 22 21 20 20 21 20 20 20 20 20 20 22 23 24 26 28 30 31 31 30 29 27 24 24 27 31 34 34 35 37 36 35 36 37 38 40 40 41 45 47 45 41 40 42 43 42 42 45 47 46 45 45 44 41 39 40 40 39 41 43 43 43 43 43 44 44
17 19 20 21 21 20 19 18 18 17 18 19 20 21 21 22 22 23 23 24 24 24 22 20 19 20 20 19 18 18 19 20 22 24 25 26 27 28 28 27 26 26 25 26 29 33 36 37 36 38 40 39 38 39 40 40 41 42 45 50 51 47 45 46 48 47 46 46 47 48 47 46 45 45 45 43 41 41 41 42 43 43 43 44 44 43 42
16 18 20 21 21 20 19 18 17 17 18 19 20 21 22 22 22 23 24 25 26 25 24 22 21 21 21 21 21 23 24 24 25 25 25 25 25 27 28 27 27 28 30 32 36 38 38 39 39 40 41 41 41 41 41 42 43 44 48 54 54 49 48 50 50 48 46 46 46 45 46 47 46 43 44 44 43 43 44 43 43 43 42 43 43 42 41
16 18 19 20 20 20 19 18 18 18 19 20 21 22 22 23 23 24 25 26 26 26 26 25 22 21 22 23 24 24 24 24 25 25 24 24 25 26 27 28 29 30 31 33 35 36 37 38 39 40 41 40 41 41 42 43 43 45 50 54 52 49 47 45 42 40 40 42 43 43 43 47 48 46 46 46 45 45 44 42 41 41 41 41 42 42 40
15 16 18 19 19 20 19 19 19 19 19 20 21 22 23 23 24 25 25 26 27 28 28 27 25 23 24 24 24 25 25 24 24 23 23 23 24 24 25 26 26 27 28 30 32 33 34 35 37 37 38 38 40 41 42 42 43 46 50 51 49 45 40 35 34 35 36 39 41 39 39 44 46 46 47 48 46 44 40 36 36 36 36 37 37 38 38
14 15 16 18 19 19 20 20 20 20 20 20 21 22 23 23 24 25 26 26 27 28 28 28 26 24 24 25 24 24 24 24 23 22 21 21 21 22 23 25 26 28 29 30 32 33 34 36 37 36 36 37 38 40 41 42 44 48 49 49 48 43 35 32 36 39 39 39 38 37 38 41 42 43 45 44 43 40 35 32 31 31 31 30 29 29 30
14 14 15 17 18 19 20 20 20 20 20 20 20 21 22 23 23 24 26 26 26 27 28 28 26 24 23 23 24 24 24 24 24 24 23 22 22 22 24 25 26 28 30 30 32 34 35 37 37 36 36 36 36 39 42 42 46 50 50 50 50 46 40 39 42 43 43 40 37 37 37 36 36 37 36 34 34 35 33 30 29 28 27 26 26 25 27
14 14 15 16 17 19 20 20 21 21 20 20 20 21 23 23 23 24 25 25 25 26 27 27 26 23 21 21 22 24 24 24 24 24 23 23 22 22 23 24 24 26 28 30 32 34 36 38 38 38 38 36 37 41 43 44 49 53 52 51 51 49 46 45 44 42 40 39 36 35 33 29 28 30 29 26 27 29 28 27 27 26 25 25 26 27 29
16 15 15 16 17 18 19 20 21 21 20 20 20 21 22 23 24 24 25 25 25 25 26 27 26 24 22 21 22 23 24 25 25 24 22 22 22 22 22 23 23 24 25 27 29 31 33 34 35 36 37 37 39 43 46 48 52 53 51 49 48 45 43 42 41 39 38 37 35 33 29 23 21 24 25 26 25 25 25 25 25 24 24 25 26 27 29
17 17 17 17 17 18 19 20 21 21 21 20 20 20 21 22 23 24 25 25 24 25 25 27 27 27 25 24 24 25 26 27 26 25 23 23 24 24 24 24 24 24 24 26 28 29 30 31 32 33 35 36 37 41 45 46 47 47 46 45 44 41 40 39 38 37 36 35 33 30 27 25 23 24 25 27 26 25 25 25 26 26 27 27 28 30 31
19 18 18 18 18 19 20 20 21 21 21 21 20 20 21 21 22 23 24 24 24 24 25 26 28 28 28 28 28 28 30 30 30 30 29 28 27 27 27 27 27 27 27 28 29 30 31 31 32 33 35 35 37 41 42 41 41 41 41 40 39 37 35 33 32 31 31 30 29 26 25 26 27 29 30 30 29 28 27 27 29 31 32 32 34 35 36
19 19 19 19 19 20 20 21 22 22 22 21 21 21 21 21 21 21 22 23 23 24 24 25 26 28 30 31 30 31 32 33 34 34 34 33 32 31 31 31 30 29 29 31 32 33 32 31 33 36 36 37 39 41 40 40 40 38 36 34 31 29 28 27 29 29 29 28 26 24 23 26 29 32 33 32 32 32 33 32 33 35 37 38 40 41 42
20 20 20 20 20 21 21 21 22 23 23 23 22 22 22 21 20 20 21 21 21 23 24 24 24 27 29 31 32 33 34 34 35 35 35 36 36 35 34 35 34 34 34 35 34 35 34 33 34 37 39 39 42 43 42 41 41 38 32 26 22 22 25 29 31 31 30 28 26 25 25 28 30 31 32 32 32 33 35 36 37 38 41 43 44 46 48
21 21 21 21 21 22 22 22 22 23 24 24 23 23 22 21 20 19 19 19 20 22 23 23 25 27 29 30 32 34 34 35 36 38 37 37 38 37 36 36 38 39 40 39 37 36 36 36 37 39 42 43 44 43 41 39 38 34 28 22 21 23 27 32 35 37 39 38 35 33 32 33 33 33 34 35 36 36 38 39 41 43 45 47 49 51 53
21 21 21 22 22 22 22 22 23 24 25 25 24 24 22 20 19 19 19 20 22 23 24 25 27 29 30 31 32 33 34 35 37 38 38 37 39 39 37 37 38 40 42 42 40 37 37 38 39 41 45 45 43 41 40 38 33 28 25 24 26 30 34 37 41 45 46 44 40 37 36 36 36 37 38 40 41 42 42 44 46 48 50 52 53 55 57
21 21 22 22 22 23 23 23 24 26 26 25 25 24 21 19 19 19 19 21 23 25 26 27 29 30 32 33 33 33 34 35 36 38 38 37 37 37 37 37 37 38 41 43 41 37 37 40 42 45 48 47 42 39 38 34 29 26 28 30 33 37 40 42 42 41 38 34 32 32 34 35 37 39 41 42 44 45 47 48 50 52 54 55 57 58 60
22 22 22 23 23 24 25 26 27 27 27 26 25 23 20 19 19 20 21 23 25 26 27 29 30 31 32 34 35 34 34 34 36 38 39 37 35 35 36 36 35 36 41 43 39 35 36 41 45 48 49 46 42 39 38 33 29 30 33 35 36 37 38 39 38 35 33 32 32 32 34 37 40 42 45 47 49 51 53 54 56 57 59 60 60 62 65
23 23 24 24 24 25 26 27 28 27 27 26 23 20 19 19 19 20 22 25 27 27 28 30 32 33 33 34 36 36 36 36 36 38 40 39 35 34 37 37 34 34 38 40 37 35 37 41 46 49 49 45 42 40 39 36 33 33 33 33 34 35 36 37 37 36 36 36 37 37 38 40 43 46 49 52 55 58 61 63 63 63 63 63 65 69 71
24 25 25 26 26 26 27 28 28 27 26 24 22 19 19 19 19 21 24 26 27 29 30 31 33 35 35 35 36 37 37 37 37 37 38 38 36 36 38 37 32 32 36 38 37 37 39 42 47 50 48 44 41 39 36 33 32 31 31 31 33 34 36 38 40 39 38 38 39 41 42 44 47 50 55 59 63 65 66 66 65 64 64 67 71 72 69
27 27 28 28 28 28 28 28 27 26 24 22 20 20 20 20 22 24 26 28 29 30 32 32 34 36 35 35 36 38 37 36 36 35 36 38 38 37 37 36 36 36 38 40 40 41 42 46 50 51 47 42 40 38 34 31 30 30 30 32 34 37 39 40 41 40 39 39 41 44 47 52 55 58 62 66 68 67 65 62 62 65 68 70 71 67 61
28 29 30 30 30 29 28 27 26 25 23 21 20 20 22 24 27 29 30 30 30 32 33 35 36 38 38 37 38 39 37 36 36 37 37 39 38 35 33 36 39 40 40 41 42 44 47 50 51 49 44 40 38 36 34 33 33 34 35 35 37 39 40 40 41 42 43 45 49 53 57 61 63 63 64 64 64 64 64 65 66 69 69 66 63 59 56
29 29 30 31 30 29 28 26 24 23 22 21 21 23 26 29 30 31 31 32 33 35 36 37 38 39 39 38 38 39 38 36 37 39 39 38 38 38 37 38 39 40 40 42 43 45 49 52 50 45 43 42 39 36 34 33 33 35 37 37 38 40 41 43 46 49 51 54 57 60 61 63 64 64 65 64 64 66 68 68 67 65 63 60 58 57 54
29 29 30 31 31 29 27 24 22 21 21 23 25 28 30 31 31 32 33 35 36 37 38 38 39 40 40 39 38 40 40 37 38 42 41 37 38 41 40 37 36 36 38 41 44 48 51 51 47 43 42 43 40 36 35 35 36 37 40 42 45 46 48 50 52 55 56 58 60 62 63 65 66 66 67 67 66 66 65 62 59 57 57 56 56 55 54
29 29 30 30 29 28 26 24 23 23 25 27 29 30 31 32 34 35 35 37 38 38 39 40 40 41 42 40 40 42 42 39 40 44 42 38 38 40 38 35 36 37 38 41 47 51 51 49 46 45 45 45 45 44 44 44 43 44 45 47 49 51 53 55 58 60 62 63 64 66 66 66 65 64 63 63 63 62 60 58 56 55 54 54 54 54 53
29 30 30 29 27 26 26 26 26 27 28 29 30 32 33 35 37 36 36 37 38 38 39 41 41 42 44 42 41 44 45 42 41 44 43 37 34 33 31 31 36 42 44 47 50 52 50 48 48 49 49 49 49 49 49 49 49 50 52 54 57 60 63 65 67 68 67 66 65 64 62 61 59 58 57 58 58 58 57 56 55 55 54 54 53 53 52
30 31 30 29 27 28 28 28 29 30 30 30 32 34 35 36 37 36 36 37 38 38 40 41 41 41 43 42 42 46 47 43 40 40 39 35 32 30 28 31 39 46 49 50 51 51 50 50 51 52 53 52 52 52 53 55 57 60 62 65 67 68 69 70 68 66 63 60 58 56 55 54 54 54 55 55 56 56 56 55 55 54 53 52 52 52 52
31 32 30 29 29 29 29 30 32 33 32 33 34 35 36 37 38 37 37 38 39 40 41 40 38 38 40 41 42 44 43 39 36 36 39 41 40 36 35 40 48 52 53 53 53 54 55 56 56 57 59 59 59 60 62 64 66 67 69 69 70 69 67 65 63 60 58 55 53 52 52 52 52 53 54 54 55 55 55 54 54 53 52 52 51 51 51
32 31 30 30 30 31 31 32 34 34 35 35 37 38 39 40 40 38 38 40 41 42 41 40 39 38 38 39 41 42 40 37 37 39 44 48 47 42 42 48 55 56 55 56 58 59 60 61 62 63 65 66 66 67 68 68 68 69 69 68 66 63 60 58 57 56 54 52 51 50 50 51 51 51 52 52 52 52 53 53 53 52 51 51 50 50 49
32 32 32 32 32 32 32 34 35 36 37 38 39 40 41 41 41 40 41 42 43 43 43 42 39 36 35 39 43 44 41 39 40 43 48 53 52 48 49 54 58 57 58 60 62 62 63 64 65 66 67 67 67 66 65 64 64 63 62 61 58 55 53 52 52 52 51 50 49 49 49 50 49 49 49 49 48 48 49 50 51 50 50 50 49 48 47
Wind_Direction
67 66 62 59 56 52 48 44 41 39 38 34 30 29 25 19 16 7 347 331 337 344 345 20 33 40 59 69 69 74 82 83 74 57 38 9 333 334 330 328 330 326 327 327 328 334 329 319 324 329 331 335 335 334 335 335 335 335 334 331 326 321 314 309 315 321 322 319 311 298 304 310 308 309 309 306 304 298 286 265 269 271 257 260 234 231 298
61 64 63 59 57 54 50 46 41 38 36 33 30 28 26 27 29 24 13 1 352 345 353 39 55 53 58 64 59 56 52 37 16 356 342 327 323 320 317 322 321 318 324 324 324 330 328 318 320 322 325 328 330 330 330 331 330 330 329 325 320 317 315 313 318 324 327 326 320 308 312 313 309 310 310 306 301 301 294 274 266 265 262 257 208 241 298
44 48 52 53 53 52 48 46 43 38 35 32 30 27 25 27 31 31 30 27 21 12 12 35 52 52 50 49 42 34 22 4 346 337 328 319 319 316 313 317 317 316 318 319 320 322 320 317 317 319 321 323 324 325 326 327 327 326 325 320 316 313 313 313 313 311 306 307 310 311 313 312 310 311 313 311 304 298 295 281 256 253 264 253 231 266 302
33 32 32 33 34 37 37 36 36 34 32 30 27 24 22 23 29 31 33 34 31 29 30 29 25 25 27 29 22 11 0 348 334 327 321 317 316 314 312 313 313 313 314 315 316 315 315 315 314 315 318 319 320 320 321 323 324 323 321 318 316 313 311 312 307 297 294 300 307 312 312 309 308 310 312 308 304 298 292 273 256 262 270 267 273 291 304
33 27 22 19 15 14 16 17 18 21 24 24 23 21 19 21 27 27 27 30 27 26 29 27 18 11 359 347 343 329 322 320 315 311 310 311 310 307 306 307 308 308 308 308 310 310 310 311 311 312 313 315 317 316 317 319 319 321 321 318 316 311 309 309 305 302 303 305 310 312 308 304 304 307 307 305 305 298 285 272 272 277 267 274 299 311 304
42 34 27 20 11 4 1 359 359 1 4 8 12 13 12 16 22 21 19 20 16 16 17 15 13 10 356 339 326 312 300 297 297 296 295 297 298 298 299 300 300 301 301 302 305 305 306 306 306 307 308 311 313 313 313 315 315 318 318 316 315 311 308 308 305 303 305 307 309 309 302 300 303 305 304 305 304 292 282 281 284 279 265 277 307 314 303
47 43 40 31 24 14 2 355 350 347 346 348 356 4 7 10 13 13 12 12 9 7 2 356 355 354 345 334 323 314 301 291 290 288 286 285 286 288 290 290 292 293 293 295 298 299 302 304 303 304 305 307 309 310 311 312 313 315 315 314 314 308 305 308 307 305 306 308 308 304 300 302 306 307 306 303 296 284 278 285 288 280 276 288 307 308 307
23 24 25 24 27 25 17 12 4 358 357 352 349 353 1 7 6 3 3 358 352 348 345 340 335 334 332 326 319 314 305 296 291 288 285 284 283 284 286 287 287 289 289 291 294 297 299 300 300 301 304 305 307 309 309 311 312 312 312 311 309 305 303 308 309 306 306 311 310 303 302 308 310 310 306 294 287 285 281 285 289 284 284 297 305 303 308
358 0 1 2 6 8 12 15 11 8 9 5 355 355 5 11 4 355 349 339 330 327 328 326 320 320 321 318 315 312 308 303 297 293 292 289 287 286 286 286 285 288 291 293 295 296 296 297 298 300 302 303 305 306 307 308 309 309 309 307 306 304 302 307 310 305 304 312 314 307 307 309 307 305 307 298 290 288 285 283 287 287 291 300 301 300 310
350 353 354 354 355 356 358 2 4 6 8 7 6 8 12 10 2 352 340 331 326 321 318 315 312 310 309 308 308 307 306 305 301 300 299 298 296 294 291 291 291 292 295 295 296 296 296 297 298 299 300 302 303 304 304 305 306 307 306 304 303 303 302 305 307 299 301 309 314 311 313 311 304 310 321 313 296 287 283 281 289 296 298 300 301 305 314
356 357 358 358 358 357 357 358 359 2 3 1 5 11 13 9 2 354 345 338 333 326 321 318 314 311 308 305 304 302 301 302 302 301 301 301 301 298 296 296 296 296 297 297 297 297 297 298 299 299 300 301 301 302 302 303 304 303 302 300 300 300 300 302 298 291 297 306 312 313 312 302 309 321 320 308 293 289 288 292 301 304 301 302 307 310 311
1 1 2 3 3 2 1 0 359 359 359 357 0 5 4 1 359 355 349 348 343 335 331 327 322 319 315 312 310 307 305 304 304 303 302 302 302 300 299 299 298 298 299 298 299 298 298 299 299 299 299 300 301 301 300 301 300 298 297 296 296 299 299 297 291 287 296 307 317 321 302 297 317 321 316 308 306 306 304 304 308 310 309 311 311 306 306
356 357 357 358 359 359 359 358 358 358 358 358 358 356 351 347 348 346 345 347 345 340 338 336 331 327 324 321 318 315 312 310 309 307 306 305 303 303 302 302 301 302 302 302 302 301 301 301 301 301 302 303 302 302 302 301 298 296 297 295 295 298 297 295 294 294 299 307 314 301 294 308 321 325 321 323 321 319 316 310 313 323 323 316 309 306 311
350 350 350 350 350 352 351 352 352 352 352 353 352 350 348 344 341 339 338 338 340 339 338 337 335 332 330 328 325 322 320 317 315 314 312 309 308 307 306 305 305 306 306 306 306 305 305 306 306 307 308 309 309 308 307 305 300 300 301 298 298 299 297 297 296 296 299 297 295 296 303 313 324 329 326 326 319 318 318 310 316 333 333 313 311 315 316
349 347 346 345 345 345 345 345 346 346 346 346 345 346 345 342 340 338 335 333 333 333 331 331 332 331 330 329 327 325 324 321 320 319 317 315 314 312 311 309 308 308 308 309 308 308 308 309 309 310 312 313 312 309 308 308 305 305 304 302 301 300 298 298 293 291 295 292 296 306 308 310 323 327 324 321 317 320 317 306 313 334 334 316 318 319 315
353 350 347 345 344 343 342 341 341 341 340 340 341 341 341 340 339 337 334 332 330 329 326 326 326 326 326 326 326 324 323 323 322 320 320 320 319 317 316 314 312 312 312 311 310 309 309 309 309 309 308 309 309 306 307 307 304 304 307 304 301 300 299 298 291 291 292 285 285 290 270 293 320 329 322 315 318 321 315 305 312 328 327 319 319 317 314
358 355 351 348 346 343 341 340 338 338 337 337 337 337 337 337 336 335 334 333 330 329 326 324 323 322 322 322 321 321 321 320 320 319 319 319 319 318 317 315 314 315 314 313 312 311 311 310 309 307 305 306 306 304 305 304 301 303 306 304 302 301 299 296 292 292 291 282 276 274 277 299 321 327 310 315 321 318 310 303 314 323 321 318 317 313 312
1 359 356 353 350 347 344 341 338 335 334 333 333 334 335 335 333 332 332 331 330 331 329 325 322 319 318 318 318 317 317 316 316 315 315 315 316 316 314 313 314 316 317 316 315 314 313 311 310 309 306 306 306 303 302 301 300 303 304 303 302 302 299 295 293 294 292 282 273 276 291 310 327 324 313 321 320 310 304 307 316 318 316 314 314 310 309
1 358 356 354 352 349 347 345 342 339 335 333 331 331 332 331 331 331 331 330 330 331 329 325 321 317 315 314 312 311 310 310 309 309 308 309 311 310 308 309 313 316 317 317 315 314 313 312 313 310 304 305 306 301 298 299 300 302 303 302 301 300 298 296 293 291 291 285 276 276 296 318 330 322 317 321 317 309 312 317 317 315 312 311 310 308 308
355 354 354 352 350 349 346 345 344 342 341 339 337 336 334 331 331 331 330 331 332 333 331 325 319 315 312 309 306 305 304 303 303 303 302 303 305 306 304 307 312 314 314 312 311 311 310 310 312 309 303 304 305 299 298 301 303 304 303 300 298 296 292 294 296 294 291 286 275 273 302 320 325 320 317 320 319 318 323 322 316 311 311 309 306 305 308
349 350 350 349 348 347 345 344 342 342 343 342 341 342 341 337 337 336 334 334 335 335 334 327 319 314 308 303 300 300 300 300 299 298 296 297 299 299 297 300 306 307 305 303 302 303 303 303 304 303 300 301 299 296 298 301 303 306 305 299 295 293 290 293 297 295 289 283 282 292 311 319 322 322 322 324 324 324 325 322 314 308 308 306 304 305 308
346 348 348 347 347 346 345 343 342 341 343 343 343 345 346 343 343 342 341 341 339 336 335 331 323 315 307 301 298 298 299 299 299 298 297 296 295 292 290 295 300 299 297 296 296 296 296 296 297 296 296 295 294 294 297 296 297 303 304 298 293 295 298 298 295 292 291 291 295 304 317 322 323 324 326 327 325 322 320 317 311 305 302 303 304 306 309
344 346 347 346 345 345 344 343 342 343 346 347 347 350 351 349 349 348 347 346 344 341 340 335 325 316 307 301 299 297 297 297 297 297 297 294 291 288 288 291 295 293 291 289 290 293 296 296 296 294 293 292 292 293 294 292 293 298 301 298 295 297 299 297 294 294 295 298 304 312 320 324 324 324 325 325 320 316 313 309 304 300 300 303 307 310 312
343 344 345 344 343 344 343 343 344 346 350 353 354 356 357 356 355 355 353 350 347 346 345 340 329 320 312 306 301 297 295 295 296 297 296 295 294 294 293 293 293 290 287 285 287 293 297 297 296 293 290 290 291 290 289 290 292 296 298 295 294 296 296 294 294 293 293 299 312 319 321 322 323 321 319 320 318 312 306 303 300 299 302 306 311 313 315
342 343 343 342 341 342 343 343 346 351 355 358 359 0 2 1 -0 -0 358 354 351 350 351 348 338 327 318 309 301 295 292 293 295 297 299 300 299 299 299 298 294 290 287 287 290 293 295 295 293 289 288 289 289 288 288 290 292 295 295 293 293 294 295 294 293 293 294 303 313 320 320 317 315 316 318 319 316 310 305 303 303 304 305 308 311 315 316
340 340 341 340 340 341 342 344 348 354 359 2 3 4 5 4 3 3 2 357 353 351 354 353 342 329 319 309 301 297 294 291 290 293 296 298 299 298 298 297 295 292 290 290 292 293 293 291 288 286 286 288 288 288 289 291 292 292 292 292 292 292 294 296 296 298 304 309 311 315 314 306 302 310 319 318 314 311 310 308 307 306 305 306 308 312 315
336 338 339 339 339 340 341 344 349 355 1 4 6 6 5 4 2 2 2 358 353 350 351 353 347 334 324 316 308 304 300 294 290 290 292 295 299 300 301 300 298 297 295 294 293 292 290 289 287 286 286 287 288 289 290 291 292 291 290 292 295 297 300 304 304 305 310 310 307 309 309 301 300 309 315 314 313 313 312 310 307 305 305 306 306 308 310
332 335 337 338 338 338 340 343 348 354 0 5 8 8 6 3 1 360 -0 359 355 350 349 351 349 339 329 321 315 311 308 304 300 297 296 297 300 302 303 302 300 298 298 297 295 294 293 292 291 289 289 290 290 290 292 292 291 291 291 294 299 303 307 313 315 314 314 313 310 309 303 298 301 306 308 308 311 312 312 311 309 309 312 314 314 313 311
327 331 334 336 337 337 339 342 346 351 358 4 9 11 9 4 359 358 359 358 355 351 347 347 347 342 333 327 324 320 318 318 316 312 308 304 302 300 298 296 295 296 298 298 297 296 294 293 292 292 293 294 293 292 292 291 291 291 292 293 297 300 306 318 324 322 319 317 315 309 300 297 299 301 302 304 307 308 309 311 311 313 317 319 320 322 319
320 325 330 333 334 336 338 341 343 347 354 0 6 9 10 6 0 358 358 356 353 350 347 346 347 344 338 334 332 329 328 328 326 324 320 316 311 306 300 298 297 297 297 297 297 296 294 293 293 294 295 297 296 294 293 293 292 291 290 291 293 298 305 315 321 320 316 313 308 301 297 298 299 297 297 299 299 300 304 308 310 312 315 316 318 321 322
312 317 323 327 330 332 335 338 340 343 349 355 -0 4 5 4 1 358 356 355 354 352 349 347 348 347 344 342 338 333 333 335 335 335 333 330 327 322 315 311 308 303 301 299 297 295 295 295 295 296 298 298 296 295 294 293 291 291 293 295 299 305 311 316 318 316 313 311 306 301 299 299 297 293 290 289 292 295 298 301 303 305 308 312 318 321 324
303 309 315 321 324 328 331 334 336 339 344 350 355 358 359 359 358 356 356 356 357 355 352 350 350 350 350 349 344 338 337 340 341 340 341 339 335 332 330 326 322 317 314 310 305 302 302 302 303 303 301 297 294 293 292 290 291 296 303 306 309 314 318 317 315 312 311 311 310 306 300 295 291 289 287 288 291 294 295 296 298 300 304 309 315 319 323
299 303 309 316 321 324 327 330 332 334 338 343 349 352 353 354 354 354 355 356 356 357 355 352 351 351 351 351 348 344 343 342 340 339 342 343 339 338 337 334 331 329 326 319 314 313 315 316 316 311 305 301 297 293 294 298 304 310 314 315 317 320 320 315 312 312 311 311 312 309 303 297 295 294 292 291 291 291 292 294 296 299 303 308 310 312 316
297 301 306 312 317 321 324 328 329 330 333 338 343 346 347 349 350 351 352 353 353 354 354 352 350 349 348 348 349 348 347 344 341 341 344 344 342 341 338 336 336 336 330 323 320 321 323 324 320 314 310 308 302 297 303 315 322 320 318 319 321 320 317 316 317 320 319 319 318 316 311 307 304 299 294 289 286 284 285 289 293 296 300 305 309 312 314
296 300 305 310 315 318 321 324 326 327 330 334 338 341 342 343 345 346 348 349 350 350 351 350 348 346 344 345 346 347 347 345 344 344 345 343 342 342 338 336 338 337 329 324 325 328 328 325 320 316 314 313 309 310 317 325 326 323 323 325 324 320 320 325 328 328 326 324 319 311 304 301 297 292 285 282 280 280 281 284 291 296 299 303 307 311 313
297 301 305 309 312 315 318 321 323 324 327 331 335 338 338 338 339 341 344 345 345 345 345 346 346 345 344 344 343 343 344 344 343 343 343 342 341 341 337 335 336 334 328 326 329 331 328 323 317 314 314 315 318 323 327 326 326 328 330 328 323 321 324 328 329 326 323 318 309 300 294 291 286 281 277 278 280 282 284 286 290 295 299 301 304 308 310
299 302 305 307 309 311 314 318 319 319 322 327 331 333 334 334 334 336 339 340 341 342 342 342 343 344 343 343 343 341 341 342 341 340 340 340 339 337 335 334 334 332 327 325 328 329 326 320 314 314 317 320 323 327 327 325 327 329 326 318 314 315 317 318 318 316 312 307 299 292 287 283 278 276 277 279 282 285 288 291 295 299 302 304 305 306 308
299 301 303 305 307 309 312 314 315 316 319 323 325 328 331 330 328 330 334 336 338 340 340 339 341 341 340 341 342 340 339 339 337 335 336 337 335 333 332 331 332 329 324 323 326 327 323 318 314 315 319 324 326 327 327 327 327 324 315 308 306 306 306 307 306 304 302 300 297 293 290 285 281 280 282 285 287 291 295 298 301 305 306 306 306 306 307
298 299 301 302 304 306 308 310 311 313 316 319 321 324 326 324 322 325 329 333 335 337 337 337 337 337 336 337 337 337 336 335 333 331 332 333 332 329 326 326 327 324 318 318 322 324 320 317 315 315 318 323 326 326 326 328 325 316 307 302 300 300 300 299 298 297 295 295 297 300 301 300 296 294 295 295 295 295 297 299 301 303 304 304 305 306 306
296 298 299 301 303 304 305 306 308 311 314 316 319 320 319 318 320 323 327 330 333 334 333 333 332 333 333 332 332 332 332 330 329 328 327 327 327 324 320 319 322 318 312 314 319 320 316 314 314 314 317 322 323 321 321 320 314 306 302 299 296 295 295 293 290 288 288 288 290 294 297 300 301 302 302 303 302 300 300 302 303 304 305 305 306 307 309
297 298 299 301 302 303 304 305 308 311 313 315 316 316 316 317 320 323 325 329 330 329 329 328 327 327 328 328 327 327 327 327 326 324 321 322 324 320 316 316 317 310 307 312 317 315 310 308 310 313 318 320 318 315 315 313 306 300 297 294 291 291 291 290 287 283 282 283 286 287 289 293 297 299 301 303 303 303 304 304 304 305 307 308 309 309 310
296 297 298 299 300 301 303 305 308 311 313 313 313 313 314 317 320 322 324 326 325 324 324 324 323 323 324 324 323 323 323 323 322 319 316 317 318 316 314 313 307 299 303 310 313 308 303 301 306 314 318 318 314 312 311 307 302 296 291 289 288 288 288 288 286 281 278 279 282 285 288 291 293 296 299 301 302 302 302 303 304 305 306 307 307 307 307
296 296 297 297 298 300 303 305 308 310 312 311 309 310 313 316 318 320 322 322 321 320 320 320 319 318 319 320 319 319 319 319 318 316 313 313 313 311 308 304 298 297 303 307 305 301 298 300 306 314 317 313 310 308 305 301 297 291 284 283 285 285 285 284 282 279 277 279 283 287 290 292 294 295 297 299 300 300 300 300 301 302 302 302 303 305 307
296 296 296 297 298 301 304 306 307 308 309 310 310 312 315 317 317 318 319 319 317 316 316 316 315 315 317 318 318 317 317 316 315 311 308 308 308 304 297 295 298 301 302 300 296 295 298 303 310 314 313 308 304 302 298 293 289 285 281 280 280 280 280 280 279 278 279 283 287 290 291 293 294 294 294 295 297 298 298 298 298 299 301 302 304 307 310
294 295 296 296 298 300 303 306 308 309 310 311 313 314 315 315 316 316 316 314 313 313 313 313 313 314 316 317 316 314 313 311 308 305 304 304 302 296 291 292 297 299 296 292 289 291 298 307 312 311 306 304 302 299 296 292 286 282 281 281 280 279 280 282 283 284 285 286 288 290 291 292 293 294 294 295 295 296 297 298 298 300 303 305 307 308 309
292 294 295 296 297 299 302 306 309 309 309 310 311 312 312 313 313 313 312 311 311 311 312 312 313 313 314 314 312 310 309 306 303 303 302 298 293 293 294 294 293 289 285 282 285 292 301 308 309 305 301 300 298 292 289 287 283 280 280 281 283 284 285 286 286 287 287 288 290 292 293 294 296 297 298 298 297 297 298 300 301 303 304 305 306 307 307
291 293 294 296 298 300 303 306 307 306 306 308 309 310 310 310 310 310 310 310 310 311 311 312 311 311 311 311 309 307 306 303 299 300 299 292 288 291 292 287 282 280 277 277 284 294 301 303 301 298 297 297 294 291 290 290 288 285 284 284 285 287 287 287 288 289 290 292 294 296 297 298 299 300 301 301 301 301 302 303 303 303 302 302 303 303 303
291 292 293 296 299 302 304 305 304 304 306 308 308 309 309 309 309 309 309 310 311 311 310 310 309 309 309 309 306 304 304 301 297 299 299 293 286 283 280 274 275 280 282 283 288 295 297 297 296 297 297 296 295 294 293 291 290 289 288 288 289 289 290 291 293 295 297 298 299 299 300 301 301 302 302 302 302 303 304 304 303 302 301 300 300 300 300
290 291 293 297 300 301 302 302 302 304 306 307 307 307 307 307 308 309 309 309 309 308 307 307 307 307 307 307 304 302 302 299 296 297 297 291 281 276 272 270 274 281 286 289 290 292 293 293 293 294 294 293 292 291 289 289 290 290 291 291 292 293 295 297 299 300 301 301 301 301 301 301 300 300 299 299 300 302 303 303 302 302 301 301 300 300 300
289 292 296 299 301 301 302 303 303 305 306 306 306 306 306 307 308 310 309 308 307 306 305 306 306 304 303 302 299 299 300 299 296 292 289 287 284 278 272 272 278 284 289 292 291 290 291 292 292 291 292 292 292 291 292 292 293 293 293 294 296 298 299 301 301 302 302 301 300 299 299 298 297 296 296 296 297 298 299 300 301 301 301 301 301 301 301
292 295 298 300 302 303 304 304 304 305 307 307 307 307 307 308 310 310 309 307 305 305 305 305 304 302 300 299 299 298 299 298 293 288 287 288 287 278 271 276 285 291 293 293 292 292 293 293 293 293 293 294 294 294 295 295 295 296 297 298 300 301 302 302 301 300 299 298 297 296 295 294 294 294 294 295 295 296 297 298 299 300 300 300 301 301 302
295 298 299 300 303 305 306 305 305 306 307 307 307 307 308 309 309 309 307 305 304 304 304 304 302 300 299 300 300 298 295 291 288 286 287 289 289 283 280 285 291 293 291 292 293 294 294 294 295 295 295 296 297 298 298 299 299 300 301 301 302 302 301 300 299 298 296 296 296 295 294 293 293 294 295 295 296 297 298 299 299 300 301 301 301 302 303
Height
3219 3218 3218 3218 3217 3217 3216 3216 3215 3214 3214 3213 3212 3212 3211 3210 3210 3209 3209 3209 3208 3208 3208 3207 3207 3207 3207 3206 3206 3206 3206 3206 3206 3205 3205 3205 3204 3204 3203 3203 3202 3201 3201 3200 3199 3198 3197 3196 3195 3194 3193 3192 3191 3190 3189 3188 3186 3185 3183 3182 3181 3179 3177 3174 3171 3170 3169 3168 3166 3166 3165 3164 3163 3162 3161 3160 3159 3157 3157 3155 3151 3151 3148 3145 3148 3141 3120
3219 3219 3218 3218 3218 3217 3217 3216 3216 3215 3215 3214 3214 3213 3212 3211 3210 3210 3210 3209 3209 3208 3208 3208 3208 3208 3207 3207 3207 3207 3207 3206 3206 3206 3205 3205 3205 3204 3203 3203 3202 3202 3201 3200 3199 3198 3197 3196 3195 3194 3193 3192 3191 3189 3188 3187 3186 3184 3183 3181 3180 3178 3176 3174 3170 3167 3166 3165 3165 3164 3164 3163 3161 3159 3158 3157 3156 3155 3153 3151 3150 3148 3142 3141 3145 3134 3116
3219 3219 3219 3218 3218 3218 3217 3217 3216 3216 3215 3215 3214 3213 3213 3212 3211 3211 3210 3210 3209 3209 3209 3208 3208 3208 3208 3208 3208 3208 3207 3207 3207 3206 3206 3206 3205 3204 3204 3203 3202 3202 3201 3200 3199 3198 3197 3196 3195 3194 3193 3191 3190 3189 3187 3186 3185 3183 3182 3180 3179 3178 3176 3174 3173 3170 3168 3165 3164 3162 3161 3160 3157 3155 3155 3153 3152 3152 3150 3148 3148 3144 3138 3137 3136 3126 3114
3219 3219 3219 3218 3218 3218 3217 3217 3217 3216 3216 3215 3214 3214 3213 3213 3212 3211 3211 3210 3210 3210 3209 3209 3209 3209 3209 3209 3208 3208 3208 3207 3207 3207 3206 3206 3205 3204 3204 3203 3202 3201 3200 3200 3199 3198 3197 3196 3194 3193 3192 3191 3189 3188 3186 3185 3183 3182 3181 3179 3178 3176 3174 3173 3172 3170 3168 3165 3164 3162 3159 3157 3154 3152 3152 3150 3149 3148 3147 3146 3142 3138 3135 3131 3126 3121 3114
3220 3219 3219 3218 3218 3218 3217 3217 3216 3216 3216 3215 3215 3214 3214 3213 3213 3212 3212 3211 3211 3210 3210 3210 3209 3209 3209 3209 3208 3208 3208 3207 3207 3206 3206 3205 3205 3204 3203 3202 3202 3201 3200 3199 3198 3197 3196 3195 3194 3192 3191 3190 3188 3187 3185 3184 3182 3181 3179 3178 3176 3174 3172 3171 3169 3167 3166 3163 3162 3161 3158 3154 3152 3150 3148 3147 3146 3144 3143 3140 3135 3134 3133 3126 3120 3120 3115
3220 3220 3219 3219 3218 3218 3217 3217 3216 3216 3216 3215 3215 3214 3214 3213 3213 3213 3212 3212 3212 3211 3211 3210 3210 3209 3209 3208 3208 3208 3207 3207 3206 3205 3205 3204 3204 3203 3202 3202 3201 3200 3199 3198 3197 3195 3194 3193 3192 3191 3190 3188 3187 3185 3183 3182 3180 3179 3178 3176 3174 3171 3168 3167 3165 3164 3164 3162 3159 3158 3155 3152 3149 3146 3144 3143 3142 3140 3137 3135 3132 3131 3129 3122 3118 3118 3112
3220 3220 3219 3219 3218 3218 3217 3217 3216 3216 3215 3215 3214 3214 3214 3213 3213 3213 3213 3212 3212 3212 3211 3211 3210 3210 3209 3208 3208 3207 3207 3206 3205 3205 3204 3203 3203 3202 3201 3200 3199 3198 3197 3196 3195 3194 3193 3191 3190 3189 3188 3186 3185 3183 3181 3180 3178 3177 3175 3174 3172 3169 3166 3164 3162 3159 3160 3160 3158 3155 3152 3149 3145 3142 3140 3139 3137 3135 3133 3132 3129 3127 3123 3119 3118 3115 3109
3221 3220 3219 3219 3218 3218 3217 3216 3216 3215 3214 3214 3214 3214 3213 3213 3213 3213 3213 3212 3212 3212 3211 3211 3211 3210 3209 3209 3208 3207 3206 3205 3205 3204 3203 3202 3202 3201 3200 3199 3198 3197 3196 3195 3193 3192 3191 3189 3188 3187 3185 3184 3183 3181 3179 3178 3176 3175 3173 3171 3170 3167 3164 3162 3160 3155 3153 3155 3155 3151 3149 3146 3141 3138 3136 3135 3133 3131 3130 3129 3127 3123 3120 3118 3117 3112 3105
3221 3220 3220 3219 3219 3218 3217 3217 3216 3215 3214 3214 3213 3213 3213 3213 3213 3212 3212 3212 3212 3211 3211 3211 3210 3210 3209 3208 3208 3207 3206 3205 3205 3204 3203 3202 3201 3200 3199 3198 3197 3196 3195 3194 3192 3191 3189 3188 3186 3185 3184 3182 3181 3179 3177 3176 3174 3173 3171 3169 3167 3166 3162 3161 3159 3153 3148 3149 3150 3147 3145 3142 3137 3134 3134 3133 3130 3128 3127 3126 3125 3121 3118 3116 3114 3108 3102
3220 3220 3219 3219 3218 3218 3217 3217 3216 3215 3215 3214 3213 3213 3213 3213 3212 3212 3212 3212 3211 3211 3211 3210 3210 3209 3208 3208 3207 3206 3206 3205 3204 3203 3202 3201 3200 3199 3198 3197 3196 3195 3194 3192 3191 3189 3188 3186 3185 3183 3182 3180 3179 3178 3176 3174 3172 3170 3169 3167 3165 3164 3161 3159 3158 3151 3145 3145 3146 3143 3140 3138 3133 3131 3131 3129 3127 3125 3124 3123 3122 3120 3116 3113 3110 3105 3101
3220 3219 3219 3218 3218 3217 3217 3216 3216 3215 3215 3214 3214 3213 3213 3213 3212 3212 3212 3211 3211 3211 3210 3210 3209 3209 3208 3207 3206 3205 3205 3204 3203 3202 3201 3200 3199 3198 3197 3196 3194 3193 3192 3190 3189 3187 3186 3184 3183 3181 3180 3178 3177 3175 3173 3172 3170 3168 3166 3164 3162 3161 3159 3157 3155 3150 3144 3143 3143 3140 3138 3135 3131 3129 3128 3126 3125 3123 3122 3120 3120 3117 3114 3110 3106 3102 3100
3219 3219 3218 3217 3217 3216 3216 3215 3215 3214 3214 3214 3213 3213 3213 3213 3212 3212 3211 3211 3211 3210 3210 3209 3209 3208 3207 3207 3206 3205 3204 3203 3202 3201 3199 3198 3197 3196 3195 3194 3192 3191 3190 3188 3187 3185 3183 3182 3180 3178 3177 3176 3174 3172 3170 3169 3167 3166 3164 3162 3160 3158 3157 3155 3153 3150 3144 3142 3141 3139 3134 3131 3129 3127 3126 3124 3123 3122 3119 3117 3116 3114 3110 3107 3103 3100 3097
3219 3218 3217 3217 3216 3215 3215 3214 3213 3213 3213 3213 3212 3213 3213 3212 3212 3212 3211 3211 3210 3210 3209 3209 3208 3208 3207 3206 3205 3204 3203 3202 3201 3200 3198 3197 3196 3195 3193 3192 3190 3189 3188 3186 3185 3183 3181 3179 3177 3175 3174 3173 3171 3169 3168 3166 3165 3163 3162 3160 3158 3157 3155 3153 3151 3149 3145 3142 3142 3139 3131 3126 3127 3126 3123 3122 3121 3119 3117 3113 3111 3111 3108 3103 3100 3097 3095
3219 3218 3217 3216 3215 3215 3214 3213 3213 3212 3211 3211 3211 3211 3211 3211 3211 3211 3210 3210 3210 3209 3209 3208 3207 3207 3206 3205 3204 3203 3202 3201 3200 3199 3198 3196 3195 3194 3192 3191 3189 3188 3186 3185 3183 3181 3179 3177 3174 3172 3171 3170 3168 3167 3165 3164 3163 3161 3160 3159 3157 3155 3154 3152 3150 3148 3145 3143 3140 3135 3128 3124 3125 3124 3122 3121 3119 3117 3115 3109 3106 3107 3106 3101 3097 3094 3091
3219 3218 3217 3216 3215 3214 3214 3213 3212 3212 3211 3210 3210 3210 3209 3209 3209 3209 3209 3209 3209 3208 3208 3207 3207 3206 3205 3204 3203 3202 3201 3200 3199 3198 3197 3195 3194 3192 3191 3189 3188 3186 3185 3183 3181 3180 3178 3176 3173 3171 3169 3168 3167 3165 3163 3162 3160 3159 3159 3157 3156 3154 3153 3151 3150 3147 3145 3143 3138 3134 3128 3124 3123 3122 3121 3119 3117 3115 3113 3107 3102 3103 3103 3098 3094 3091 3087
3219 3218 3217 3216 3215 3214 3213 3213 3212 3211 3210 3210 3209 3209 3208 3208 3208 3207 3207 3207 3207 3207 3206 3206 3205 3205 3204 3203 3202 3201 3200 3199 3197 3196 3195 3194 3193 3191 3190 3188 3186 3185 3183 3182 3180 3178 3177 3175 3173 3171 3169 3167 3166 3163 3161 3160 3158 3157 3157 3156 3154 3153 3151 3150 3148 3145 3143 3142 3139 3136 3129 3123 3120 3121 3119 3117 3115 3112 3110 3104 3100 3099 3098 3095 3090 3087 3083
3218 3218 3217 3216 3215 3214 3214 3213 3212 3211 3210 3209 3208 3208 3207 3207 3206 3206 3206 3205 3205 3205 3205 3204 3204 3203 3202 3202 3201 3200 3198 3197 3196 3194 3193 3192 3191 3189 3188 3186 3185 3184 3182 3180 3179 3177 3175 3174 3172 3170 3168 3166 3165 3163 3160 3158 3156 3155 3154 3153 3153 3152 3149 3147 3146 3143 3141 3139 3137 3133 3126 3120 3119 3119 3117 3116 3113 3110 3107 3102 3097 3095 3094 3091 3087 3083 3080
3218 3217 3216 3216 3215 3214 3214 3213 3212 3211 3210 3209 3208 3207 3206 3206 3205 3204 3204 3203 3203 3203 3203 3203 3202 3201 3201 3200 3199 3198 3197 3196 3194 3193 3192 3190 3189 3188 3186 3185 3183 3182 3181 3179 3177 3176 3174 3172 3171 3169 3167 3165 3164 3162 3159 3157 3155 3153 3152 3151 3150 3149 3147 3145 3142 3139 3138 3136 3132 3127 3122 3118 3117 3116 3115 3114 3111 3108 3106 3101 3096 3092 3091 3088 3084 3080 3076
3217 3217 3216 3215 3214 3214 3213 3212 3211 3211 3210 3209 3208 3207 3206 3205 3204 3203 3202 3202 3202 3202 3202 3201 3200 3199 3199 3198 3196 3196 3195 3194 3193 3191 3189 3188 3188 3186 3184 3183 3182 3180 3179 3178 3176 3174 3173 3171 3170 3168 3165 3163 3163 3160 3157 3156 3154 3152 3151 3149 3148 3146 3144 3141 3139 3136 3135 3132 3128 3124 3120 3116 3115 3114 3112 3112 3109 3106 3103 3099 3094 3091 3087 3083 3080 3076 3073
3217 3216 3215 3214 3213 3213 3212 3211 3210 3209 3208 3208 3207 3206 3205 3204 3203 3202 3201 3200 3200 3200 3200 3199 3198 3197 3196 3195 3194 3193 3192 3191 3190 3189 3188 3186 3185 3184 3182 3181 3180 3179 3177 3175 3174 3173 3171 3169 3168 3167 3164 3162 3161 3158 3155 3153 3152 3151 3149 3147 3145 3144 3142 3139 3135 3134 3132 3129 3126 3122 3117 3114 3113 3112 3110 3109 3107 3104 3100 3095 3090 3087 3083 3079 3074 3071 3069
3216 3215 3214 3213 3212 3212 3211 3210 3209 3208 3207 3206 3205 3205 3204 3203 3202 3201 3200 3199 3198 3198 3198 3197 3196 3195 3194 3193 3192 3190 3189 3189 3188 3187 3185 3184 3183 3182 3180 3179 3179 3177 3175 3174 3172 3171 3170 3167 3166 3164 3162 3160 3159 3156 3153 3150 3148 3147 3147 3144 3142 3141 3140 3137 3134 3132 3130 3126 3121 3117 3115 3113 3112 3111 3109 3107 3104 3101 3097 3091 3085 3081 3078 3074 3069 3066 3065
3215 3215 3214 3213 3212 3211 3210 3209 3208 3207 3206 3204 3203 3203 3202 3201 3200 3199 3198 3197 3196 3195 3195 3195 3193 3192 3191 3190 3189 3188 3187 3186 3185 3184 3183 3181 3181 3180 3179 3178 3178 3176 3174 3173 3171 3169 3168 3166 3164 3162 3160 3158 3156 3153 3152 3148 3144 3143 3143 3141 3138 3136 3136 3134 3130 3128 3127 3122 3115 3112 3113 3113 3110 3108 3106 3104 3102 3098 3094 3089 3082 3077 3074 3070 3066 3063 3061
3215 3214 3214 3213 3212 3211 3210 3209 3207 3206 3205 3204 3202 3202 3201 3200 3199 3197 3196 3195 3194 3194 3193 3193 3191 3190 3189 3188 3187 3186 3185 3184 3183 3182 3181 3179 3178 3177 3177 3176 3175 3174 3172 3171 3169 3167 3166 3164 3162 3160 3157 3155 3153 3150 3148 3146 3142 3140 3139 3136 3133 3131 3131 3129 3125 3121 3121 3117 3111 3110 3111 3110 3107 3105 3102 3100 3097 3093 3088 3083 3078 3073 3070 3068 3065 3061 3057
3215 3214 3214 3213 3212 3211 3209 3208 3207 3205 3204 3202 3201 3200 3199 3198 3197 3196 3194 3193 3192 3192 3192 3191 3189 3188 3186 3185 3184 3183 3182 3181 3180 3179 3178 3176 3175 3174 3173 3173 3172 3170 3169 3168 3167 3165 3163 3161 3159 3156 3153 3151 3150 3147 3144 3141 3138 3137 3134 3129 3125 3126 3126 3124 3120 3118 3116 3112 3108 3108 3108 3105 3103 3101 3098 3096 3092 3087 3083 3078 3073 3070 3068 3065 3062 3058 3054
3215 3214 3213 3212 3212 3211 3209 3208 3207 3204 3202 3201 3199 3198 3197 3196 3195 3194 3192 3191 3189 3189 3189 3189 3188 3186 3184 3183 3182 3181 3180 3179 3177 3176 3175 3174 3172 3171 3170 3169 3168 3167 3166 3166 3164 3163 3160 3157 3156 3152 3148 3147 3146 3143 3140 3138 3135 3134 3130 3122 3119 3121 3121 3117 3115 3114 3113 3109 3106 3105 3103 3100 3098 3096 3092 3089 3085 3081 3078 3074 3070 3067 3064 3061 3058 3054 3050
3215 3214 3213 3212 3211 3210 3209 3208 3206 3204 3201 3199 3198 3197 3195 3194 3193 3192 3190 3188 3187 3186 3186 3186 3186 3184 3183 3181 3180 3178 3177 3176 3174 3173 3172 3171 3170 3169 3167 3167 3166 3164 3163 3162 3160 3159 3156 3153 3151 3148 3144 3143 3142 3139 3137 3135 3132 3130 3124 3115 3114 3117 3117 3114 3112 3111 3110 3107 3104 3102 3097 3092 3090 3090 3087 3083 3078 3075 3073 3070 3067 3063 3060 3057 3054 3051 3047
3214 3213 3212 3211 3210 3209 3209 3207 3205 3203 3200 3198 3196 3195 3193 3192 3191 3189 3188 3186 3184 3183 3183 3184 3184 3182 3180 3179 3177 3175 3174 3172 3171 3170 3169 3168 3167 3166 3165 3164 3162 3161 3159 3157 3156 3154 3152 3149 3147 3144 3141 3140 3138 3135 3133 3131 3128 3125 3118 3110 3110 3114 3114 3112 3111 3109 3107 3104 3101 3098 3093 3085 3081 3082 3080 3076 3073 3070 3068 3065 3062 3058 3055 3051 3049 3047 3044
3213 3212 3211 3210 3209 3208 3208 3206 3204 3202 3199 3197 3195 3193 3192 3190 3189 3187 3186 3184 3183 3181 3181 3181 3181 3179 3177 3176 3174 3172 3171 3170 3168 3167 3166 3165 3164 3163 3162 3161 3159 3157 3156 3154 3151 3150 3147 3145 3143 3141 3138 3137 3134 3131 3129 3127 3123 3118 3112 3108 3109 3111 3110 3109 3108 3106 3103 3100 3097 3094 3091 3084 3079 3078 3075 3071 3068 3066 3063 3060 3057 3054 3050 3047 3043 3041 3039
3211 3210 3210 3209 3208 3207 3206 3205 3203 3201 3198 3196 3194 3192 3191 3189 3187 3185 3184 3183 3181 3180 3179 3178 3177 3176 3174 3173 3172 3170 3168 3167 3165 3164 3163 3162 3161 3160 3158 3157 3155 3154 3152 3150 3148 3146 3144 3141 3139 3137 3136 3134 3130 3126 3124 3121 3117 3113 3109 3106 3106 3106 3105 3105 3105 3101 3097 3095 3092 3089 3086 3081 3078 3076 3072 3068 3064 3061 3058 3056 3053 3050 3047 3044 3040 3037 3034
3210 3209 3208 3207 3206 3205 3204 3203 3202 3200 3197 3195 3193 3191 3190 3188 3186 3184 3183 3181 3180 3178 3177 3175 3175 3174 3172 3171 3169 3167 3166 3164 3163 3162 3160 3159 3158 3156 3155 3153 3152 3150 3149 3147 3144 3142 3139 3137 3135 3134 3134 3132 3128 3122 3119 3116 3112 3107 3104 3102 3102 3102 3102 3102 3100 3095 3091 3089 3087 3084 3080 3076 3075 3073 3069 3065 3062 3059 3056 3053 3050 3047 3044 3041 3038 3035 3032
3208 3207 3206 3205 3204 3203 3202 3202 3200 3198 3196 3194 3192 3190 3188 3187 3185 3183 3182 3180 3179 3177 3176 3174 3173 3172 3171 3170 3168 3165 3164 3162 3161 3160 3158 3157 3155 3153 3152 3150 3149 3147 3145 3143 3141 3138 3135 3133 3132 3131 3130 3129 3124 3118 3115 3113 3107 3101 3100 3100 3101 3101 3099 3097 3094 3090 3085 3082 3080 3079 3075 3072 3070 3068 3066 3062 3059 3056 3053 3050 3047 3044 3041 3038 3035 3032 3029
3207 3206 3204 3203 3202 3201 3200 3200 3198 3197 3195 3193 3191 3189 3187 3185 3183 3182 3181 3179 3178 3176 3175 3173 3172 3171 3170 3169 3167 3165 3162 3161 3159 3158 3156 3155 3153 3151 3149 3148 3146 3144 3142 3139 3137 3135 3132 3131 3129 3127 3126 3124 3120 3115 3111 3107 3101 3098 3099 3100 3098 3098 3096 3092 3087 3084 3080 3077 3075 3074 3072 3068 3065 3063 3061 3058 3055 3052 3049 3046 3043 3041 3038 3035 3033 3030 3027
3205 3204 3203 3201 3200 3199 3198 3198 3197 3195 3194 3193 3191 3189 3186 3184 3182 3181 3179 3178 3177 3176 3174 3172 3170 3169 3168 3167 3166 3164 3162 3160 3158 3156 3154 3153 3150 3148 3146 3145 3143 3141 3139 3137 3134 3132 3130 3128 3126 3123 3121 3119 3116 3111 3107 3102 3099 3098 3098 3097 3094 3093 3090 3086 3083 3080 3076 3073 3071 3070 3068 3065 3062 3060 3058 3055 3052 3049 3046 3043 3039 3037 3034 3032 3029 3026 3023
3203 3202 3201 3200 3198 3197 3196 3196 3195 3194 3193 3191 3190 3188 3185 3183 3181 3180 3178 3177 3175 3174 3173 3171 3169 3168 3167 3166 3164 3162 3160 3158 3156 3154 3152 3150 3148 3146 3143 3141 3140 3138 3136 3133 3132 3130 3128 3126 3123 3119 3116 3114 3112 3107 3102 3100 3099 3099 3096 3094 3092 3089 3086 3083 3080 3078 3075 3072 3069 3067 3065 3063 3060 3057 3054 3052 3049 3046 3043 3040 3036 3032 3030 3027 3024 3021 3019
3201 3200 3199 3198 3196 3195 3194 3193 3193 3192 3191 3190 3188 3186 3184 3182 3180 3179 3177 3176 3174 3173 3171 3170 3169 3167 3165 3163 3162 3160 3158 3156 3153 3151 3149 3147 3146 3144 3141 3138 3137 3135 3132 3131 3130 3128 3126 3124 3119 3115 3112 3109 3105 3101 3099 3098 3097 3096 3093 3091 3089 3086 3083 3080 3078 3076 3073 3071 3068 3065 3063 3060 3057 3054 3050 3047 3044 3041 3038 3036 3033 3029 3025 3022 3019 3016 3013
3199 3198 3196 3195 3194 3193 3192 3191 3190 3190 3189 3188 3186 3185 3183 3181 3179 3177 3176 3174 3173 3172 3170 3169 3168 3166 3164 3161 3159 3157 3155 3153 3150 3149 3147 3144 3142 3141 3138 3135 3133 3131 3129 3127 3126 3125 3122 3120 3115 3111 3107 3104 3101 3099 3099 3097 3094 3092 3090 3088 3086 3083 3081 3078 3075 3072 3070 3068 3065 3062 3059 3056 3052 3049 3045 3042 3039 3036 3033 3030 3028 3025 3021 3017 3014 3011 3008
3196 3195 3194 3193 3192 3191 3190 3189 3188 3188 3187 3185 3184 3183 3181 3179 3178 3176 3175 3173 3172 3171 3169 3167 3166 3164 3162 3159 3157 3155 3153 3150 3147 3145 3143 3141 3139 3137 3135 3132 3130 3127 3124 3122 3122 3121 3118 3115 3112 3107 3103 3100 3099 3098 3097 3095 3091 3089 3087 3085 3083 3081 3078 3075 3072 3069 3067 3064 3061 3058 3054 3051 3048 3044 3041 3037 3035 3032 3029 3026 3023 3020 3016 3012 3009 3006 3003
3194 3193 3192 3191 3190 3189 3188 3187 3186 3185 3184 3183 3182 3181 3180 3178 3176 3175 3173 3172 3170 3169 3167 3165 3164 3162 3159 3157 3155 3153 3150 3148 3145 3143 3141 3139 3136 3133 3131 3129 3127 3124 3120 3117 3117 3117 3113 3110 3107 3103 3098 3096 3097 3096 3093 3091 3089 3087 3085 3083 3080 3078 3075 3072 3069 3066 3062 3058 3055 3052 3048 3045 3042 3040 3037 3033 3030 3027 3024 3021 3018 3014 3011 3007 3004 3001 2997
3191 3190 3189 3188 3187 3187 3186 3185 3184 3183 3182 3181 3180 3178 3177 3176 3174 3173 3171 3170 3168 3166 3165 3163 3161 3159 3157 3155 3153 3151 3149 3146 3144 3141 3139 3137 3135 3132 3128 3126 3125 3121 3116 3113 3113 3112 3109 3105 3102 3098 3093 3092 3093 3092 3089 3087 3087 3085 3083 3081 3078 3075 3072 3069 3065 3062 3058 3054 3050 3047 3044 3040 3037 3034 3032 3028 3025 3022 3020 3017 3013 3010 3007 3003 3000 2997 2993
3189 3188 3187 3186 3185 3184 3183 3182 3181 3180 3179 3178 3177 3176 3174 3173 3172 3170 3168 3167 3166 3164 3163 3161 3159 3157 3155 3152 3150 3149 3147 3145 3142 3139 3136 3135 3134 3131 3127 3124 3123 3119 3113 3109 3108 3108 3104 3101 3097 3093 3089 3088 3088 3087 3086 3085 3084 3082 3079 3076 3073 3070 3068 3064 3061 3058 3054 3051 3048 3045 3042 3038 3034 3031 3027 3024 3020 3017 3014 3011 3008 3005 3002 2999 2996 2992 2988
3187 3186 3185 3184 3182 3181 3180 3179 3178 3177 3176 3175 3174 3173 3171 3170 3169 3167 3166 3164 3163 3162 3160 3159 3157 3155 3153 3150 3148 3146 3144 3142 3140 3137 3134 3132 3132 3129 3125 3122 3120 3116 3109 3106 3105 3103 3100 3096 3092 3087 3085 3084 3084 3083 3082 3081 3078 3076 3073 3070 3067 3064 3062 3059 3057 3054 3050 3046 3044 3041 3038 3035 3032 3028 3024 3020 3017 3013 3009 3005 3002 2999 2996 2993 2990 2987 2984
3184 3183 3182 3181 3180 3179 3178 3176 3175 3174 3173 3172 3171 3170 3168 3167 3166 3164 3163 3162 3160 3159 3157 3156 3153 3151 3150 3148 3146 3143 3141 3140 3138 3135 3131 3129 3128 3126 3122 3119 3117 3111 3106 3104 3102 3099 3095 3091 3086 3082 3082 3081 3079 3077 3076 3074 3072 3070 3067 3065 3062 3059 3056 3054 3051 3049 3045 3042 3039 3036 3033 3030 3027 3024 3020 3016 3012 3009 3005 3001 2997 2994 2991 2988 2985 2983 2980
3181 3180 3180 3178 3177 3176 3175 3173 3172 3172 3171 3169 3168 3167 3166 3164 3163 3162 3160 3159 3157 3155 3153 3152 3150 3148 3147 3145 3143 3140 3139 3137 3134 3131 3128 3126 3124 3122 3118 3115 3111 3107 3103 3100 3097 3094 3090 3085 3080 3078 3077 3076 3074 3072 3070 3068 3066 3064 3062 3060 3057 3054 3051 3048 3045 3042 3040 3037 3033 3030 3027 3023 3020 3017 3014 3011 3007 3003 3000 2997 2994 2990 2987 2984 2980 2977 2974
3177 3177 3176 3175 3174 3173 3171 3170 3169 3169 3168 3166 3165 3164 3163 3161 3160 3159 3157 3155 3153 3152 3150 3148 3146 3144 3142 3141 3139 3136 3134 3133 3130 3127 3124 3122 3120 3118 3113 3109 3105 3103 3099 3095 3091 3087 3083 3079 3076 3074 3073 3071 3068 3066 3065 3063 3061 3059 3056 3054 3052 3049 3045 3043 3039 3036 3034 3031 3027 3024 3020 3017 3014 3011 3008 3005 3002 2998 2994 2991 2988 2985 2981 2977 2973 2969 2966
3173 3173 3172 3171 3170 3169 3168 3167 3166 3166 3165 3163 3162 3161 3160 3158 3157 3155 3153 3152 3150 3148 3146 3144 3142 3140 3138 3137 3135 3132 3130 3129 3126 3123 3120 3118 3115 3112 3108 3104 3101 3099 3095 3090 3085 3081 3077 3074 3072 3071 3068 3066 3064 3062 3060 3057 3055 3052 3049 3048 3046 3043 3040 3037 3034 3030 3027 3024 3020 3017 3014 3010 3007 3004 3000 2998 2995 2992 2988 2984 2980 2976 2972 2968 2964 2961 2959
3169 3169 3168 3167 3166 3166 3165 3164 3163 3163 3162 3160 3159 3158 3156 3155 3153 3151 3149 3147 3145 3143 3141 3140 3138 3136 3134 3133 3131 3128 3126 3124 3121 3117 3115 3113 3108 3104 3102 3101 3098 3094 3088 3083 3078 3074 3070 3069 3068 3066 3063 3061 3059 3057 3055 3053 3050 3047 3043 3040 3038 3036 3033 3030 3026 3023 3019 3016 3013 3009 3006 3003 2999 2996 2992 2989 2986 2983 2979 2976 2973 2969 2965 2960 2957 2953 2951
3166 3165 3165 3163 3162 3162 3162 3161 3160 3159 3158 3157 3156 3154 3152 3151 3149 3147 3145 3143 3141 3139 3137 3135 3134 3131 3130 3129 3126 3123 3121 3119 3115 3112 3110 3107 3102 3099 3098 3096 3092 3087 3081 3075 3070 3067 3065 3065 3063 3060 3058 3056 3053 3051 3049 3047 3044 3041 3037 3033 3030 3027 3024 3020 3017 3014 3011 3008 3004 3001 2997 2994 2991 2987 2983 2979 2976 2973 2970 2967 2964 2962 2958 2954 2951 2947 2944
3162 3161 3161 3160 3160 3159 3159 3158 3157 3156 3155 3154 3152 3150 3148 3146 3144 3142 3140 3138 3137 3135 3132 3130 3129 3126 3125 3124 3121 3117 3114 3113 3109 3106 3104 3102 3098 3094 3092 3088 3082 3078 3074 3069 3064 3062 3061 3060 3057 3054 3052 3050 3047 3044 3041 3038 3036 3033 3029 3025 3022 3018 3014 3010 3007 3004 3001 2998 2994 2991 2987 2984 2981 2977 2974 2970 2966 2963 2961 2959 2956 2953 2951 2948 2944 2941 2938
3158 3157 3157 3157 3157 3156 3156 3154 3153 3152 3152 3150 3148 3146 3144 3142 3140 3139 3137 3134 3133 3130 3127 3125 3123 3121 3119 3117 3114 3110 3108 3107 3103 3100 3099 3096 3092 3089 3087 3081 3074 3069 3066 3063 3059 3057 3056 3054 3051 3048 3045 3043 3040 3037 3034 3031 3028 3024 3021 3016 3012 3008 3005 3001 2998 2994 2991 2988 2985 2981 2978 2975 2972 2968 2965 2961 2957 2954 2952 2950 2947 2945 2943 2940 2937 2934 2931
3154 3154 3154 3154 3154 3153 3152 3151 3149 3148 3147 3146 3144 3142 3140 3138 3136 3135 3132 3130 3127 3124 3122 3120 3119 3116 3114 3111 3108 3104 3102 3101 3099 3095 3092 3089 3086 3083 3079 3072 3065 3061 3059 3058 3055 3052 3050 3047 3044 3041 3038 3035 3033 3029 3026 3022 3018 3014 3010 3007 3003 3000 2996 2993 2989 2985 2982 2979 2976 2973 2970 2967 2963 2960 2956 2953 2949 2946 2943 2941 2939 2937 2935 2932 2930 2926 2923
3150 3151 3151 3151 3150 3149 3148 3146 3145 3143 3142 3141 3139 3137 3135 3133 3131 3129 3127 3124 3121 3119 3117 3115 3113 3110 3108 3106 3102 3098 3096 3094 3092 3089 3084 3080 3078 3074 3068 3061 3056 3055 3053 3050 3048 3045 3043 3040 3037 3033 3029 3026 3024 3020 3016 3013 3009 3005 3001 2998 2995 2991 2988 2984 2980 2977 2974 2971 2968 2965 2962 2959 2956 2952 2949 2945 2942 2938 2935 2933 2932 2930 2927 2925 2922 2920 2917
3147 3147 3146 3146 3146 3145 3143 3142 3140 3139 3138 3136 3134 3133 3130 3128 3126 3124 3121 3118 3115 3113 3112 3109 3106 3104 3102 3100 3097 3093 3089 3086 3083 3079 3074 3070 3068 3065 3059 3053 3050 3049 3046 3042 3040 3038 3036 3033 3029 3025 3021 3018 3014 3011 3007 3003 3000 2996 2993 2990 2986 2983 2979 2976 2972 2969 2966 2963 2961 2958 2954 2951 2948 2945 2942 2938 2935 2932 2928 2925 2923 2922 2919 2917 2915 2913 2911